• In Spain
  • List of Countries
  • For 7 days
  • Water Temperature
  • Satellite Maps
  • Weather Map
  • Weather Widgets
  • user-avatar
    Login

    Hourly Weather Dobron

    Today, 23 September, Sunday

    Time Temperature Precipitation Wind Pressure Humidity
    00:00 +12°C° 0 mm 3 mps 747 mmHg 62%
    01:00 +11°C° 0 mm 3 mps 746 mmHg 62%
    02:00 +11°C° 0 mm 3 mps 746 mmHg 63%
    03:00 +11°C° 0 mm 3 mps 746 mmHg 64%
    04:00 +11°C° 0 mm 3 mps 746 mmHg 66%
    05:00 +11°C° 0.1 mm 4 mps 746 mmHg 68%
    06:00 +11°C° 0.1 mm 4 mps 745 mmHg 70%
    07:00 +12°C° 0.1 mm 4 mps 745 mmHg 72%
    08:00 +12°C° 0.1 mm 5 mps 745 mmHg 71%
    09:00 +13°C° 0.1 mm 5 mps 745 mmHg 69%
    10:00 +14°C° 0.1 mm 5 mps 745 mmHg 67%
    11:00 +14°C° 0.1 mm 5 mps 745 mmHg 65%
    12:00 +14°C° 0.1 mm 5 mps 744 mmHg 64%
    13:00 +15°C° 0.1 mm 4 mps 744 mmHg 62%
    14:00 +14°C° 0.3 mm 4 mps 743 mmHg 67%
    15:00 +13°C° 0.3 mm 3 mps 743 mmHg 71%
    16:00 +14°C° 0.3 mm 2 mps 742 mmHg 76%
    17:00 +12°C° 1 mm 3 mps 741 mmHg 80%
    18:00 +12°C° 1 mm 4 mps 739 mmHg 83%
    19:00 +12°C° 1 mm 4 mps 738 mmHg 87%
    20:00 +10°C° 8.2 mm 5 mps 737 mmHg 88%
    21:00 +10°C° 8.2 mm 6 mps 736 mmHg 90%
    22:00 +10°C° 8.2 mm 7 mps 735 mmHg 91%
    23:00 +9°C° 0.5 mm 6 mps 736 mmHg 91%

    Tomorrow, 24 September, Monday

    Time Temperature Precipitation Wind Pressure Humidity
    00:00 +9°C° 0.5 mm 6 mps 736 mmHg 91%
    01:00 +9°C° 0.5 mm 5 mps 736 mmHg 91%
    02:00 +9°C° 1.1 mm 6 mps 738 mmHg 89%
    03:00 +8°C° 1.1 mm 7 mps 739 mmHg 87%
    04:00 +7°C° 1.1 mm 8 mps 741 mmHg 85%
    05:00 +7°C° 0.1 mm 8 mps 742 mmHg 84%
    06:00 +7°C° 0.1 mm 8 mps 743 mmHg 82%
    07:00 +7°C° 0.1 mm 9 mps 744 mmHg 81%
    08:00 +8°C° 0.1 mm 9 mps 744 mmHg 77%
    09:00 +8°C° 0.1 mm 10 mps 745 mmHg 72%
    10:00 +9°C° 0.1 mm 10 mps 745 mmHg 68%
    11:00 +9°C° 0.1 mm 10 mps 746 mmHg 64%
    12:00 +9°C° 0.1 mm 10 mps 746 mmHg 61%
    13:00 +9°C° 0.1 mm 11 mps 747 mmHg 57%
    14:00 +9°C° 0.1 mm 10 mps 747 mmHg 55%
    15:00 +9°C° 0.1 mm 10 mps 747 mmHg 54%
    16:00 +9°C° 0.1 mm 10 mps 747 mmHg 52%
    17:00 +8°C° 0.2 mm 9 mps 748 mmHg 57%
    18:00 +9°C° 0.2 mm 8 mps 748 mmHg 62%
    19:00 +7°C° 0.2 mm 8 mps 749 mmHg 67%
    20:00 +6°C° 0.1 mm 7 mps 750 mmHg 70%
    21:00 +7°C° 0.1 mm 6 mps 750 mmHg 73%
    22:00 +5°C° 0.1 mm 6 mps 751 mmHg 76%
    23:00 +5°C° 0 mm 6 mps 752 mmHg 76%

    Day after tomorrow, 25 September, Tuesday

    Time Temperature Precipitation Wind Pressure Humidity
    00:00 +5°C° 0 mm 6 mps 752 mmHg 76%
    01:00 +6°C° 0 mm 5 mps 753 mmHg 77%
    02:00 +6°C° 0 mm 5 mps 753 mmHg 78%
    03:00 +5°C° 0 mm 5 mps 754 mmHg 79%
    04:00 +5°C° 0 mm 5 mps 754 mmHg 81%
    05:00 +5°C° 0 mm 5 mps 755 mmHg 80%
    06:00 +5°C° 0 mm 5 mps 755 mmHg 79%
    07:00 +5°C° 0 mm 5 mps 756 mmHg 79%
    08:00 +7°C° 0 mm 6 mps 756 mmHg 70%
    09:00 +8°C° 0 mm 6 mps 757 mmHg 61%
    10:00 +9°C° 0 mm 6 mps 757 mmHg 52%
    11:00 +10°C° 0.1 mm 7 mps 758 mmHg 49%
    12:00 +11°C° 0.1 mm 7 mps 758 mmHg 46%
    13:00 +11°C° 0.1 mm 7 mps 758 mmHg 42%
    14:00 +11°C° 0 mm 6 mps 758 mmHg 42%
    15:00 +11°C° 0 mm 6 mps 758 mmHg 43%
    16:00 +10°C° 0 mm 5 mps 758 mmHg 43%
    17:00 +10°C° 0 mm 4 mps 758 mmHg 46%
    18:00 +8°C° 0 mm 4 mps 759 mmHg 50%
    19:00 +8°C° 0 mm 3 mps 759 mmHg 53%
    20:00 +8°C° 0 mm 2 mps 760 mmHg 55%
    21:00 +7°C° 0 mm 2 mps 760 mmHg 56%
    22:00 +7°C° 0 mm 2 mps 760 mmHg 57%
    23:00 +6°C° 0 mm 2 mps 760 mmHg 60%

    26 September, Wednesday

    Time Temperature Precipitation Wind Pressure Humidity
    00:00 +6°C° 0 mm 2 mps 760 mmHg 63%
    01:00 +6°C° 0 mm 2 mps 760 mmHg 65%
    02:00 +6°C° 0 mm 2 mps 760 mmHg 68%
    03:00 +5°C° 0 mm 2 mps 760 mmHg 72%
    04:00 +4°C° 0 mm 3 mps 760 mmHg 75%
    05:00 +5°C° 0 mm 3 mps 760 mmHg 74%
    06:00 +5°C° 0 mm 3 mps 760 mmHg 72%
    07:00 +5°C° 0 mm 3 mps 760 mmHg 71%
    08:00 +7°C° 0 mm 4 mps 760 mmHg 64%
    09:00 +9°C° 0 mm 5 mps 759 mmHg 57%
    10:00 +12°C° 0 mm 5 mps 759 mmHg 50%
    11:00 +12°C° 0 mm 5 mps 759 mmHg 48%
    12:00 +13°C° 0 mm 6 mps 758 mmHg 46%
    13:00 +14°C° 0 mm 6 mps 757 mmHg 43%
    14:00 +14°C° 0 mm 5 mps 757 mmHg 45%
    15:00 +14°C° 0 mm 5 mps 756 mmHg 47%
    16:00 +14°C° 0 mm 4 mps 756 mmHg 48%
    17:00 +13°C° 0 mm 4 mps 755 mmHg 50%
    18:00 +13°C° 0 mm 4 mps 755 mmHg 51%
    19:00 +12°C° 0 mm 4 mps 755 mmHg 52%
    20:00 +12°C° 0 mm 5 mps 754 mmHg 52%
    21:00 +12°C° 0 mm 5 mps 754 mmHg 51%
    22:00 +11°C° 0 mm 6 mps 754 mmHg 51%
    23:00 +11°C° 0 mm 6 mps 753 mmHg 50%

    27 September, Thursday

    Time Temperature Precipitation Wind Pressure Humidity
    00:00 +11°C° 0 mm 6 mps 753 mmHg 49%
    01:00 +11°C° 0 mm 7 mps 753 mmHg 49%
    02:00 +11°C° 0 mm 7 mps 752 mmHg 49%
    03:00 +11°C° 0 mm 7 mps 752 mmHg 49%
    04:00 +11°C° 0 mm 7 mps 752 mmHg 49%
    05:00 +11°C° 0 mm 7 mps 752 mmHg 50%
    06:00 +11°C° 0 mm 7 mps 752 mmHg 52%
    07:00 +11°C° 0 mm 7 mps 752 mmHg 54%
    08:00 +12°C° 0 mm 7 mps 752 mmHg 55%
    09:00 +14°C° 0 mm 7 mps 752 mmHg 56%
    10:00 +15°C° 0 mm 7 mps 752 mmHg 57%
    11:00 +15°C° 0 mm 7 mps 752 mmHg 59%
    12:00 +16°C° 0 mm 7 mps 752 mmHg 60%
    13:00 +17°C° 0 mm 7 mps 751 mmHg 62%
    14:00 +17°C° 0 mm 6 mps 751 mmHg 63%
    15:00 +17°C° 0 mm 6 mps 751 mmHg 65%
    16:00 +19°C° 0 mm 5 mps 751 mmHg 66%
    17:00 +18°C° 0 mm 4 mps 751 mmHg 70%
    18:00 +17°C° 0 mm 4 mps 751 mmHg 74%
    19:00 +16°C° 0 mm 3 mps 751 mmHg 78%
    20:00 +16°C° 0 mm 3 mps 751 mmHg 80%
    21:00 +16°C° 0 mm 3 mps 751 mmHg 82%
    22:00 +14°C° 0 mm 3 mps 751 mmHg 83%
    23:00 +14°C° 0 mm 3 mps 751 mmHg 85%

    28 September, Friday

    Time Temperature Precipitation Wind Pressure Humidity
    00:00 +13°C° 0 mm 3 mps 751 mmHg 86%
    01:00 +13°C° 0 mm 4 mps 750 mmHg 87%
    02:00 +13°C° 0 mm 4 mps 750 mmHg 86%
    03:00 +12°C° 0 mm 4 mps 750 mmHg 85%
    04:00 +12°C° 0 mm 4 mps 750 mmHg 84%
    05:00 +13°C° 0 mm 4 mps 749 mmHg 82%
    06:00 +13°C° 0 mm 4 mps 749 mmHg 79%
    07:00 +13°C° 0 mm 5 mps 749 mmHg 76%
    08:00 +15°C° 0 mm 5 mps 749 mmHg 73%
    09:00 +16°C° 0 mm 5 mps 749 mmHg 70%
    10:00 +19°C° 0 mm 5 mps 749 mmHg 67%
    11:00 +19°C° 0 mm 5 mps 749 mmHg 66%
    12:00 +20°C° 0 mm 4 mps 749 mmHg 65%
    13:00 +20°C° 0 mm 4 mps 749 mmHg 64%
    14:00 +19°C° 0.1 mm 4 mps 749 mmHg 66%
    15:00 +19°C° 0.1 mm 3 mps 749 mmHg 69%
    16:00 +18°C° 0.1 mm 3 mps 749 mmHg 71%
    17:00 +18°C° 0 mm 2 mps 749 mmHg 74%
    18:00 +17°C° 0 mm 2 mps 749 mmHg 77%
    19:00 +16°C° 0 mm 2 mps 750 mmHg 80%
    20:00 +16°C° 0 mm 1 mps 750 mmHg 81%
    21:00 +15°C° 0 mm 1 mps 750 mmHg 81%
    22:00 +15°C° 0 mm 1 mps 750 mmHg 81%
    23:00 +15°C° 0 mm 1 mps 750 mmHg 81%
    Show more